FLOCK 3P-74

Last updated on Wed Feb 14 2018 16:20:34 GMT+0000 (Coordinated Universal Time)

1 42048U 17008DE 18045.17836531 .00002009 00000-0 86066-4 0 9997 2 42048 97.4684 110.8205 0010111 73.1606 287.0739 15.23912816 54533
UTC large
Height (km)
Speed (km/s)
/
Latitude / Longitude
Inclination (degrees)
Orbital Period (minutes)
Azimuth
Elevation
Range (km)
Doppler Factor

Next 0 passes for location: London (51.5072 / 0.1276)

Sorry there are no passes over London.
FLOCK 3P-74